| time (UTC) | temp C | wind direction | speed KPH | gust KPH | rain 1hr cm | rain 24hr cm | rain mn cm | humidity % | barometer mb |
| 20260507221525 | 15 | 330 | 1.6 | 9.7 | 0.00 | 0.13 | 0.03 | 34 | 1004.8 |
| 20260507221013 | 15 | 15 | 4.8 | 9.7 | 0.00 | 0.13 | 0.03 | 34 | 1004.7 |
| 20260507220509 | 15 | 9 | 0.0 | 4.8 | 0.00 | 0.13 | 0.03 | 38 | 1004.8 |
| 20260507220027 | 15 | 211 | 3.2 | 4.8 | 0.00 | 0.13 | 0.03 | 34 | 1004.7 |
| 20260507215510 | 15 | 30 | 3.2 | 11.3 | 0.00 | 0.15 | 0.03 | 35 | 1004.7 |
| 20260507215004 | 15 | 28 | 1.6 | 11.3 | 0.00 | 0.18 | 0.03 | 35 | 1004.7 |
| 20260507214520 | 15 | 9 | 1.6 | 8.0 | 0.00 | 0.20 | 0.03 | 33 | 1004.7 |
| 20260507214004 | 15 | 292 | 3.2 | 14.5 | 0.00 | 0.23 | 0.03 | 32 | 1004.9 |
| 20260507213507 | 15 | 346 | 3.2 | 14.5 | 0.00 | 0.23 | 0.03 | 34 | 1004.7 |
| 20260507213028 | 15 | 352 | 1.6 | 14.5 | 0.00 | 0.23 | 0.03 | 33 | 1004.9 |
| 20260507212508 | 15 | 27 | 4.8 | 12.9 | 0.00 | 0.25 | 0.03 | 31 | 1005.0 |
| 20260507212009 | 15 | 52 | 3.2 | 6.4 | 0.00 | 0.28 | 0.03 | 33 | 1005.1 |
| 20260507211526 | 15 | 225 | 3.2 | 6.4 | 0.00 | 0.30 | 0.03 | 32 | 1005.1 |
| 20260507211008 | 15 | 180 | 0.0 | 6.4 | 0.00 | 0.30 | 0.03 | 36 | 1004.9 |
| 20260507210510 | 16 | 191 | 1.6 | 9.7 | 0.00 | 0.33 | 0.03 | 35 | 1004.8 |
| 20260507210025 | 16 | 220 | 1.6 | 9.7 | 0.00 | 0.36 | 0.03 | 36 | 1004.7 |
| 20260507205513 | 16 | 325 | 1.6 | 6.4 | 0.00 | 0.38 | 0.03 | 36 | 1004.7 |
| 20260507205013 | 16 | 34 | 3.2 | 6.4 | 0.00 | 0.41 | 0.03 | 32 | 1004.9 |
| 20260507204525 | 16 | 40 | 1.6 | 6.4 | 0.00 | 0.43 | 0.03 | 34 | 1004.8 |
| 20260507204004 | 16 | 150 | 1.6 | 8.0 | 0.00 | 0.46 | 0.03 | 34 | 1004.7 |
| 20260507203504 | 16 | 34 | 1.6 | 9.7 | 0.00 | 0.48 | 0.03 | 37 | 1004.7 |
| 20260507203026 | 16 | 48 | 3.2 | 9.7 | 0.00 | 0.53 | 0.03 | 32 | 1004.6 |
| 20260507202506 | 16 | 30 | 4.8 | 9.7 | 0.00 | 0.56 | 0.03 | 31 | 1004.6 |
| 20260507202009 | 16 | 343 | 1.6 | 6.4 | 0.00 | 0.58 | 0.03 | 37 | 1004.6 |
| 20260507201526 | 16 | 53 | 3.2 | 6.4 | 0.00 | 0.58 | 0.03 | 34 | 1004.6 |
| 20260507201004 | 16 | 304 | 1.6 | 6.4 | 0.00 | 0.61 | 0.03 | 34 | 1004.8 |
| 20260507200504 | 16 | 9 | 1.6 | 8.0 | 0.00 | 0.64 | 0.03 | 36 | 1004.8 |
| 20260507200006 | 16 | 253 | 3.2 | 8.0 | 0.00 | 0.64 | 0.03 | 37 | 1004.9 |
| 20260507195504 | 16 | 38 | 1.6 | 9.7 | 0.00 | 0.64 | 0.03 | 36 | 1004.9 |
| 20260507195002 | 16 | 11 | 3.2 | 9.7 | 0.00 | 0.64 | 0.03 | 35 | 1005.0 |
| 20260507194511 | 16 | 344 | 1.6 | 8.0 | 0.00 | 0.64 | 0.03 | 35 | 1005.0 |
| 20260507194003 | 16 | 215 | 1.6 | 6.4 | 0.00 | 0.66 | 0.03 | 38 | 1005.1 |
| 20260507193505 | 16 | 11 | 3.2 | 9.7 | 0.00 | 0.66 | 0.03 | 35 | 1004.9 |
| 20260507193003 | 16 | 148 | 3.2 | 9.7 | 0.00 | 0.66 | 0.03 | 36 | 1005.0 |
| 20260507192502 | 16 | 352 | 3.2 | 8.0 | 0.00 | 0.69 | 0.03 | 36 | 1005.0 |
| 20260507192007 | 16 | 284 | 1.6 | 8.0 | 0.00 | 0.69 | 0.03 | 35 | 1005.1 |
| 20260507191504 | 16 | 30 | 4.8 | 8.0 | 0.00 | 0.71 | 0.03 | 38 | 1005.1 |
| 20260507191002 | 16 | 352 | 3.2 | 11.3 | 0.00 | 0.74 | 0.03 | 35 | 1005.2 |
| 20260507190504 | 16 | 323 | 3.2 | 16.1 | 0.00 | 0.74 | 0.03 | 33 | 1005.3 |
| 20260507190006 | 16 | 55 | 3.2 | 16.1 | 0.00 | 0.76 | 0.03 | 39 | 1005.3 |
| 20260507185503 | 16 | 44 | 6.4 | 11.3 | 0.00 | 0.76 | 0.03 | 34 | 1005.4 |
| 20260507185003 | 17 | 182 | 1.6 | 9.7 | 0.00 | 0.79 | 0.03 | 34 | 1005.4 |
| 20260507184510 | 17 | 164 | 3.2 | 8.0 | 0.00 | 0.79 | 0.03 | 35 | 1005.4 |
| 20260507184003 | 16 | 335 | 3.2 | 17.7 | 0.00 | 0.84 | 0.03 | 34 | 1005.5 |
| 20260507183504 | 16 | 24 | 6.4 | 17.7 | 0.00 | 0.84 | 0.03 | 35 | 1005.5 |
| 20260507183028 | 16 | 328 | 0.0 | 17.7 | 0.00 | 0.86 | 0.03 | 42 | 1005.4 |
| 20260507182503 | 16 | 254 | 1.6 | 17.7 | 0.00 | 0.86 | 0.03 | 35 | 1005.5 |
| 20260507182002 | 17 | 65 | 3.2 | 11.3 | 0.00 | 0.89 | 0.03 | 34 | 1005.4 |
| 20260507181504 | 16 | 193 | 3.2 | 14.5 | 0.00 | 0.91 | 0.03 | 37 | 1005.5 |
| 20260507181006 | 16 | 219 | 3.2 | 14.5 | 0.00 | 0.91 | 0.03 | 34 | 1005.4 |
| 20260507180503 | 16 | 182 | 1.6 | 12.9 | 0.00 | 0.91 | 0.03 | 33 | 1005.4 |
| 20260507180005 | 17 | 324 | 4.8 | 12.9 | 0.00 | 0.91 | 0.03 | 37 | 1005.5 |
| 20260507175505 | 16 | 323 | 3.2 | 11.3 | 0.00 | 0.91 | 0.03 | 38 | 1005.4 |
| 20260507175004 | 17 | 26 | 1.6 | 11.3 | 0.00 | 0.91 | 0.03 | 43 | 1005.4 |
| 20260507174513 | 16 | 350 | 1.6 | 8.0 | 0.00 | 0.91 | 0.03 | 36 | 1005.3 |
| 20260507174004 | 16 | 222 | 1.6 | 9.7 | 0.00 | 0.91 | 0.03 | 38 | 1005.3 |
| 20260507173505 | 16 | 268 | 3.2 | 9.7 | 0.00 | 0.91 | 0.03 | 41 | 1005.3 |
| 20260507173014 | 16 | 219 | 3.2 | 14.5 | 0.00 | 0.91 | 0.03 | 41 | 1005.4 |
| 20260507172506 | 16 | 60 | 4.8 | 14.5 | 0.00 | 0.91 | 0.03 | 37 | 1005.4 |
| 20260507172004 | 16 | 340 | 3.2 | 11.3 | 0.00 | 0.91 | 0.03 | 41 | 1005.4 |
| 20260507171513 | 16 | 269 | 3.2 | 11.3 | 0.00 | 0.91 | 0.03 | 40 | 1005.7 |
| 20260507171005 | 16 | 15 | 1.6 | 12.9 | 0.00 | 0.91 | 0.03 | 47 | 1005.6 |
| 20260507170502 | 16 | 19 | 1.6 | 12.9 | 0.00 | 0.91 | 0.03 | 49 | 1005.7 |
| 20260507170004 | 16 | 37 | 3.2 | 12.9 | 0.00 | 0.91 | 0.03 | 47 | 1005.9 |
| 20260507165503 | 16 | 252 | 3.2 | 12.9 | 0.00 | 0.91 | 0.03 | 46 | 1006.0 |
| 20260507165003 | 16 | 155 | 3.2 | 12.9 | 0.00 | 0.91 | 0.03 | 45 | 1006.0 |
| 20260507164508 | 16 | 344 | 1.6 | 12.9 | 0.00 | 0.91 | 0.03 | 55 | 1006.1 |
| 20260507164003 | 16 | 34 | 3.2 | 12.9 | 0.00 | 0.91 | 0.03 | 50 | 1006.1 |
| 20260507163502 | 16 | 298 | 4.8 | 12.9 | 0.00 | 0.91 | 0.03 | 47 | 1006.1 |
| 20260507163014 | 16 | 150 | 1.6 | 8.0 | 0.00 | 0.91 | 0.03 | 59 | 1006.0 |
| 20260507162506 | 16 | 5 | 4.8 | 14.5 | 0.00 | 0.91 | 0.03 | 50 | 1006.1 |
| 20260507162006 | 15 | 211 | 4.8 | 14.5 | 0.00 | 0.91 | 0.03 | 49 | 1006.1 |
| 20260507161523 | 15 | 301 | 1.6 | 9.7 | 0.00 | 0.91 | 0.03 | 55 | 1006.1 |
| 20260507161007 | 15 | 360 | 1.6 | 8.0 | 0.00 | 0.91 | 0.03 | 54 | 1006.3 |
| 20260507160509 | 14 | 63 | 4.8 | 9.7 | 0.00 | 0.91 | 0.03 | 53 | 1006.3 |
| 20260507160016 | 14 | 59 | 4.8 | 9.7 | 0.00 | 0.91 | 0.03 | 51 | 1006.5 |
| 20260507155505 | 15 | 348 | 1.6 | 8.0 | 0.00 | 0.91 | 0.03 | 53 | 1006.6 |
| 20260507155004 | 15 | 21 | 4.8 | 8.0 | 0.00 | 0.91 | 0.03 | 57 | 1006.6 |
| 20260507154508 | 15 | 336 | 1.6 | 8.0 | 0.00 | 0.91 | 0.03 | 59 | 1006.7 |
| 20260507154007 | 15 | 351 | 3.2 | 8.0 | 0.00 | 0.91 | 0.03 | 57 | 1006.8 |
| 20260507153502 | 15 | 58 | 1.6 | 6.4 | 0.00 | 0.91 | 0.03 | 56 | 1006.7 |
| 20260507153014 | 15 | 42 | 4.8 | 8.0 | 0.00 | 0.91 | 0.03 | 55 | 1007.0 |
| 20260507152507 | 15 | 351 | 3.2 | 8.0 | 0.00 | 0.91 | 0.03 | 55 | 1007.1 |
| 20260507152004 | 15 | 36 | 3.2 | 12.9 | 0.00 | 0.91 | 0.03 | 55 | 1007.0 |
| 20260507151533 | 13 | 29 | 4.8 | 12.9 | 0.00 | 0.91 | 0.03 | 57 | 1007.2 |
| 20260507151006 | 13 | 73 | 1.6 | 6.4 | 0.00 | 0.91 | 0.03 | 55 | 1007.1 |
| 20260507150507 | 15 | 241 | 1.6 | 16.1 | 0.00 | 0.91 | 0.03 | 53 | 1007.3 |
| 20260507150018 | 15 | 34 | 4.8 | 16.1 | 0.00 | 0.91 | 0.03 | 55 | 1007.3 |
| 20260507145506 | 15 | 264 | 0.0 | 12.9 | 0.00 | 0.91 | 0.03 | 58 | 1007.3 |
| 20260507145007 | 15 | 342 | 3.2 | 12.9 | 0.00 | 0.91 | 0.03 | 53 | 1007.4 |
| 20260507144520 | 15 | 180 | 3.2 | 6.4 | 0.00 | 0.91 | 0.03 | 53 | 1007.4 |
| 20260507144003 | 15 | 36 | 1.6 | 6.4 | 0.00 | 0.91 | 0.03 | 60 | 1007.3 |
| 20260507143502 | 15 | 331 | 3.2 | 6.4 | 0.00 | 0.91 | 0.03 | 60 | 1007.3 |
| 20260507143012 | 15 | 252 | 3.2 | 6.4 | 0.00 | 0.91 | 0.03 | 61 | 1007.2 |
| 20260507142502 | 15 | 125 | 0.0 | 4.8 | 0.00 | 0.91 | 0.03 | 56 | 1007.2 |
| 20260507142008 | 15 | 360 | 1.6 | 6.4 | 0.00 | 0.91 | 0.03 | 56 | 1007.2 |
| 20260507141516 | 15 | 94 | 1.6 | 6.4 | 0.00 | 0.91 | 0.03 | 59 | 1007.3 |
| 20260507141007 | 15 | 21 | 1.6 | 6.4 | 0.00 | 0.91 | 0.03 | 62 | 1007.2 |
| 20260507140503 | 15 | 63 | 0.0 | 4.8 | 0.00 | 0.91 | 0.03 | 62 | 1007.2 |
| 20260507140023 | 13 | 22 | 1.6 | 4.8 | 0.00 | 0.91 | 0.03 | 57 | 1007.2 |
| 20260507135506 | 14 | 188 | 1.6 | 4.8 | 0.00 | 0.91 | 0.03 | 64 | 1007.1 |
| 20260507135009 | 13 | 219 | 1.6 | 6.4 | 0.00 | 0.91 | 0.03 | 59 | 1007.1 |
| 20260507134530 | 13 | 229 | 0.0 | 6.4 | 0.00 | 0.91 | 0.03 | 61 | 1007.3 |
| 20260507134007 | 12 | 25 | 3.2 | 6.4 | 0.00 | 0.91 | 0.03 | 62 | 1007.3 |
| 20260507133510 | 12 | 346 | 1.6 | 4.8 | 0.00 | 0.91 | 0.03 | 65 | 1007.4 |
| 20260507133021 | 12 | 196 | 3.2 | 6.4 | 0.00 | 0.91 | 0.03 | 63 | 1007.4 |
| 20260507132503 | 12 | 155 | 1.6 | 6.4 | 0.00 | 0.91 | 0.03 | 66 | 1007.5 |
| 20260507132010 | 12 | 264 | 1.6 | 6.4 | 0.00 | 0.91 | 0.03 | 68 | 1007.7 |
| 20260507131524 | 12 | 27 | 3.2 | 6.4 | 0.00 | 0.91 | 0.03 | 66 | 1007.5 |
| 20260507131006 | 12 | 241 | 1.6 | 4.8 | 0.00 | 0.91 | 0.03 | 70 | 1007.6 |
| 20260507130508 | 11 | 28 | 1.6 | 4.8 | 0.00 | 0.91 | 0.03 | 66 | 1007.5 |
| 20260507130019 | 11 | 239 | 0.0 | 4.8 | 0.00 | 0.91 | 0.03 | 65 | 1007.5 |
| 20260507125513 | 11 | 299 | 0.0 | 4.8 | 0.00 | 0.91 | 0.03 | 69 | 1007.5 |
| 20260507125011 | 11 | 352 | 0.0 | 6.4 | 0.00 | 0.91 | 0.03 | 68 | 1007.6 |
| 20260507124523 | 11 | 63 | 1.6 | 6.4 | 0.00 | 0.91 | 0.03 | 67 | 1007.6 |
| 20260507124006 | 11 | 9 | 0.0 | 6.4 | 0.00 | 0.91 | 0.03 | 70 | 1007.7 |
| 20260507123510 | 10 | 128 | 1.6 | 6.4 | 0.00 | 0.91 | 0.03 | 71 | 1007.8 |
| 20260507123024 | 10 | 44 | 1.6 | 3.2 | 0.00 | 0.91 | 0.03 | 74 | 1007.8 |
| 20260507122509 | 10 | 206 | 0.0 | 3.2 | 0.00 | 0.91 | 0.03 | 73 | 1008.0 |
| 20260507122012 | 10 | 173 | 1.6 | 3.2 | 0.00 | 0.91 | 0.03 | 75 | 1007.9 |
| 20260507121522 | 10 | 317 | 1.6 | 3.2 | 0.00 | 0.91 | 0.03 | 77 | 1008.0 |
| 20260507121003 | 9 | 351 | 0.0 | 3.2 | 0.00 | 0.91 | 0.03 | 78 | 1008.0 |
| 20260507120512 | 9 | 281 | 0.0 | 3.2 | 0.00 | 0.91 | 0.03 | 81 | 1007.9 |
| 20260507120018 | 9 | 26 | 1.6 | 3.2 | 0.00 | 0.91 | 0.03 | 79 | 1008.0 |
| 20260507115506 | 9 | 28 | 0.0 | 3.2 | 0.00 | 0.91 | 0.03 | 80 | 1007.9 |
| 20260507115007 | 8 | 48 | 0.0 | 4.8 | 0.00 | 0.91 | 0.03 | 80 | 1008.0 |
| 20260507114529 | 8 | 42 | 1.6 | 4.8 | 0.00 | 0.91 | 0.03 | 79 | 1007.9 |
| 20260507114007 | 8 | 18 | 1.6 | 3.2 | 0.00 | 0.91 | 0.03 | 81 | 1007.7 |
| 20260507113507 | 8 | 27 | 0.0 | 3.2 | 0.00 | 0.91 | 0.03 | 82 | 1007.8 |
| 20260507113025 | 8 | 316 | 0.0 | 3.2 | 0.00 | 0.91 | 0.03 | 83 | 1007.9 |
| 20260507112508 | 8 | 72 | 0.0 | 3.2 | 0.00 | 0.91 | 0.03 | 83 | 1007.9 |
| 20260507112008 | 8 | 76 | 0.0 | 3.2 | 0.00 | 0.91 | 0.03 | 83 | 1008.0 |
| 20260507111524 | 8 | 76 | 0.0 | 3.2 | 0.00 | 0.91 | 0.03 | 84 | 1008.2 |
| 20260507111007 | 8 | 37 | 0.0 | 3.2 | 0.00 | 0.91 | 0.03 | 84 | 1007.9 |
| 20260507110506 | 8 | 36 | 0.0 | 3.2 | 0.00 | 0.91 | 0.03 | 85 | 1007.9 |
| 20260507110024 | 8 | 46 | 0.0 | 3.2 | 0.00 | 0.91 | 0.03 | 85 | 1007.7 |
| 20260507105507 | 8 | 145 | 0.0 | 3.2 | 0.00 | 0.91 | 0.03 | 86 | 1007.8 |
| 20260507105007 | 8 | 145 | 0.0 | 3.2 | 0.00 | 0.91 | 0.03 | 85 | 1007.7 |
| 20260507104524 | 8 | 146 | 0.0 | 3.2 | 0.00 | 0.91 | 0.03 | 86 | 1007.7 |
| 20260507104003 | 8 | 253 | 0.0 | 3.2 | 0.00 | 0.91 | 0.03 | 87 | 1007.7 |
| 20260507103504 | 8 | 246 | 0.0 | 3.2 | 0.00 | 0.91 | 0.03 | 86 | 1007.8 |
| 20260507103004 | 8 | 244 | 0.0 | 3.2 | 0.00 | 0.91 | 0.03 | 86 | 1007.7 |
| 20260507102503 | 8 | 37 | 0.0 | 3.2 | 0.00 | 0.91 | 0.03 | 86 | 1007.9 |
| 20260507102006 | 8 | 19 | 0.0 | 3.2 | 0.00 | 0.91 | 0.03 | 87 | 1007.7 |
| 20260507101516 | 8 | 19 | 0.0 | 3.2 | 0.00 | 0.91 | 0.03 | 87 | 1007.6 |
| 20260507101004 | 8 | 37 | 0.0 | 3.2 | 0.00 | 0.91 | 0.03 | 87 | 1007.8 |
| 20260507100504 | 8 | 186 | 0.0 | 3.2 | 0.00 | 0.91 | 0.03 | 88 | 1008.0 |
| 20260507100011 | 8 | 186 | 0.0 | 3.2 | 0.00 | 0.91 | 0.03 | 88 | 1007.9 |
| 20260507095504 | 8 | 186 | 0.0 | 3.2 | 0.00 | 0.91 | 0.03 | 88 | 1007.8 |
| 20260507095002 | 8 | 32 | 0.0 | 3.2 | 0.00 | 0.91 | 0.03 | 88 | 1007.8 |
| 20260507094503 | 8 | 32 | 0.0 | 3.2 | 0.00 | 0.91 | 0.03 | 88 | 1007.9 |
| 20260507094003 | 8 | 32 | 0.0 | 3.2 | 0.00 | 0.91 | 0.03 | 88 | 1007.7 |
| 20260507093503 | 8 | 30 | 0.0 | 3.2 | 0.00 | 0.91 | 0.03 | 88 | 1007.8 |
| 20260507093004 | 8 | 30 | 0.0 | 3.2 | 0.00 | 0.91 | 0.03 | 89 | 1007.8 |
| 20260507092503 | 8 | 30 | 0.0 | 3.2 | 0.00 | 0.91 | 0.03 | 89 | 1007.9 |
| 20260507092002 | 8 | 30 | 0.0 | 3.2 | 0.00 | 0.91 | 0.03 | 89 | 1008.1 |
| 20260507091508 | 8 | 30 | 0.0 | 3.2 | 0.00 | 0.91 | 0.03 | 89 | 1007.7 |
| 20260507091004 | 8 | 30 | 0.0 | 3.2 | 0.03 | 0.91 | 0.03 | 89 | 1007.5 |
| 20260507090504 | 8 | 32 | 0.0 | 273.6 | 0.03 | 0.91 | 0.03 | 89 | 1007.8 |
| 20260507090012 | 8 | 171 | 0.0 | 273.6 | 0.03 | 0.91 | 0.03 | 89 | 1007.9 |
| 20260507085504 | 8 | 173 | 0.0 | 3.2 | 0.03 | 0.91 | 0.03 | 88 | 1007.6 |
| 20260507085005 | 8 | 173 | 0.0 | 3.2 | 0.03 | 0.91 | 0.03 | 88 | 1007.3 |
| 20260507084530 | 8 | 203 | 0.0 | 3.2 | 0.03 | 0.91 | 0.03 | 88 | 1007.1 |
| 20260507084005 | 8 | 101 | 0.0 | 3.2 | 0.03 | 0.91 | 0.03 | 87 | 1007.2 |
| 20260507083502 | 8 | 101 | 0.0 | 3.2 | 0.03 | 0.91 | 0.03 | 87 | 1007.1 |
| 20260507083004 | 8 | 74 | 1.6 | 3.2 | 0.03 | 0.91 | 0.03 | 87 | 1007.2 |
| 20260507082504 | 8 | 121 | 0.0 | 3.2 | 0.03 | 0.91 | 0.03 | 87 | 1007.1 |
| 20260507082003 | 8 | 192 | 0.0 | 6.4 | 0.03 | 0.91 | 0.03 | 86 | 1006.8 |
| 20260507081511 | 8 | 196 | 1.6 | 6.4 | 0.03 | 0.91 | 0.03 | 85 | 1006.8 |
| 20260507081003 | 9 | 80 | 0.0 | 3.2 | 0.00 | 0.89 | 0.00 | 84 | 1007.2 |
| 20260507080506 | 9 | 33 | 0.0 | 4.8 | 0.00 | 0.89 | 0.00 | 84 | 1007.2 |
| 20260507080006 | 9 | 39 | 1.6 | 4.8 | 0.00 | 0.89 | 0.00 | 84 | 1007.5 |
| 20260507075503 | 9 | 14 | 1.6 | 3.2 | 0.00 | 0.89 | 0.00 | 84 | 1007.2 |
| 20260507075006 | 9 | 136 | 0.0 | 3.2 | 0.00 | 0.89 | 0.00 | 85 | 1007.1 |
| 20260507074524 | 9 | 164 | 0.0 | 4.8 | 0.00 | 0.89 | 0.00 | 85 | 1007.1 |
| 20260507074003 | 9 | 339 | 0.0 | 4.8 | 0.00 | 0.89 | 0.00 | 85 | 1007.0 |
| 20260507073507 | 9 | 156 | 0.0 | 4.8 | 0.00 | 0.89 | 0.00 | 86 | 1007.1 |
| 20260507073020 | 9 | 166 | 0.0 | 3.2 | 0.00 | 0.89 | 0.00 | 86 | 1007.0 |
| 20260507072509 | 9 | 46 | 0.0 | 4.8 | 0.00 | 0.89 | 0.00 | 86 | 1007.0 |
| 20260507072002 | 9 | 66 | 1.6 | 4.8 | 0.00 | 0.89 | 0.00 | 86 | 1006.9 |
| 20260507071503 | 10 | 313 | 0.0 | 3.2 | 0.00 | 0.89 | 0.00 | 86 | 1007.0 |
| 20260507071003 | 9 | 48 | 1.6 | 3.2 | 0.00 | 0.89 | 0.00 | 86 | 1007.3 |
| 20260507070503 | 10 | 348 | 0.0 | 8.0 | 0.00 | 0.89 | 0.00 | 86 | 1006.9 |
| 20260507070012 | 10 | 63 | 1.6 | 8.0 | 0.00 | 0.89 | 0.00 | 86 | 1006.6 |
| 20260507065503 | 10 | 321 | 0.0 | 8.0 | 0.00 | 0.89 | 0.00 | 86 | 1006.8 |
| 20260507065004 | 10 | 33 | 0.0 | 6.4 | 0.00 | 0.89 | 0.00 | 86 | 1006.9 |
| 20260507064512 | 10 | 21 | 0.0 | 6.4 | 0.00 | 0.89 | 0.00 | 86 | 1006.8 |
| 20260507064007 | 10 | 325 | 1.6 | 3.2 | 0.00 | 0.89 | 0.00 | 86 | 1006.5 |
| 20260507063504 | 10 | 81 | 0.0 | 3.2 | 0.00 | 0.89 | 0.00 | 86 | 1006.5 |
| 20260507063016 | 10 | 80 | 0.0 | 3.2 | 0.00 | 0.89 | 0.00 | 86 | 1006.5 |
| 20260507062505 | 10 | 148 | 0.0 | 3.2 | 0.00 | 0.89 | 0.00 | 87 | 1006.5 |
| 20260507062010 | 10 | 45 | 1.6 | 3.2 | 0.00 | 0.89 | 0.00 | 87 | 1006.4 |
| 20260507061520 | 10 | 302 | 0.0 | 8.0 | 0.00 | 0.89 | 0.00 | 87 | 1006.5 |
| 20260507061007 | 10 | 240 | 0.0 | 8.0 | 0.00 | 0.89 | 0.00 | 87 | 1006.8 |
| 20260507060504 | 10 | 28 | 0.0 | 3.2 | 0.00 | 0.89 | 0.00 | 88 | 1006.8 |
| 20260507060004 | 10 | 350 | 0.0 | 3.2 | 0.00 | 0.89 | 0.00 | 88 | 1006.8 |
| 20260507055503 | 10 | 212 | 0.0 | 3.2 | 0.00 | 0.89 | 0.00 | 88 | 1006.8 |
| 20260507055003 | 10 | 211 | 0.0 | 3.2 | 0.00 | 0.89 | 0.00 | 88 | 1006.9 |
| 20260507054508 | 10 | 160 | 0.0 | 6.4 | 0.00 | 0.89 | 0.00 | 88 | 1006.8 |
| 20260507054003 | 10 | 271 | 0.0 | 6.4 | 0.00 | 0.89 | 0.00 | 87 | 1006.8 |
| 20260507053505 | 10 | 178 | 0.0 | 6.4 | 0.00 | 0.89 | 0.00 | 87 | 1006.5 |
| 20260507053014 | 10 | 302 | 0.0 | 6.4 | 0.00 | 0.89 | 0.00 | 88 | 1006.8 |
| 20260507052508 | 10 | 255 | 0.0 | 3.2 | 0.00 | 0.89 | 0.00 | 88 | 1006.8 |
| 20260507052008 | 10 | 311 | 0.0 | 3.2 | 0.00 | 0.89 | 0.00 | 87 | 1006.8 |
| 20260507051529 | 10 | 227 | 0.0 | 3.2 | 0.00 | 0.89 | 0.00 | 87 | 1006.5 |
| 20260507051005 | 10 | 284 | 0.0 | 4.8 | 0.00 | 0.89 | 0.00 | 87 | 1006.4 |
| 20260507050506 | 10 | 346 | 1.6 | 4.8 | 0.00 | 0.89 | 0.00 | 87 | 1006.5 |
| 20260507050023 | 11 | 123 | 0.0 | 4.8 | 0.00 | 0.89 | 0.00 | 88 | 1006.5 |
| 20260507045507 | 11 | 268 | 1.6 | 4.8 | 0.00 | 0.89 | 0.00 | 88 | 1006.7 |
| 20260507045004 | 11 | 265 | 0.0 | 8.0 | 0.00 | 0.89 | 0.00 | 88 | 1006.6 |
| 20260507044509 | 11 | 303 | 0.0 | 8.0 | 0.00 | 0.89 | 0.00 | 88 | 1006.7 |
| 20260507044004 | 11 | 59 | 1.6 | 8.0 | 0.00 | 0.89 | 0.00 | 89 | 1006.9 |
| 20260507043504 | 11 | 51 | 0.0 | 3.2 | 0.00 | 0.89 | 0.00 | 88 | 1007.0 |
| 20260507043012 | 11 | 63 | 0.0 | 3.2 | 0.00 | 0.89 | 0.00 | 88 | 1006.9 |
| 20260507042506 | 11 | 350 | 0.0 | 3.2 | 0.00 | 0.89 | 0.00 | 88 | 1006.7 |
| 20260507042004 | 11 | 270 | 0.0 | 3.2 | 0.00 | 0.89 | 0.00 | 88 | 1006.6 |
| 20260507041520 | 11 | 9 | 0.0 | 4.8 | 0.00 | 0.89 | 0.00 | 88 | 1006.6 |
| 20260507041008 | 11 | 318 | 0.0 | 4.8 | 0.00 | 0.89 | 0.00 | 88 | 1006.6 |
| 20260507040508 | 11 | 105 | 1.6 | 4.8 | 0.00 | 0.89 | 0.00 | 88 | 1006.5 |
| 20260507040021 | 12 | 284 | 0.0 | 3.2 | 0.00 | 0.89 | 0.00 | 89 | 1006.7 |
| 20260507035507 | 12 | 254 | 0.0 | 4.8 | 0.00 | 0.89 | 0.89 | 88 | 1006.5 |
| 20260507035006 | 12 | 323 | 1.6 | 8.0 | 0.00 | 0.89 | 0.89 | 89 | 1006.3 |
| 20260507034537 | 12 | 32 | 1.6 | 8.0 | 0.00 | 0.89 | 0.89 | 89 | 1006.2 |
| 20260507034007 | 12 | 323 | 1.6 | 6.4 | 0.00 | 0.89 | 0.89 | 90 | 1006.3 |
| 20260507033504 | 13 | 294 | 1.6 | 6.4 | 0.00 | 0.89 | 0.89 | 90 | 1006.3 |
| 20260507033012 | 13 | 20 | 3.2 | 6.4 | 0.00 | 0.89 | 0.89 | 91 | 1006.3 |
| 20260507032505 | 13 | 292 | 1.6 | 6.4 | 0.00 | 0.89 | 0.89 | 91 | 1006.6 |
| 20260507032006 | 13 | 321 | 1.6 | 4.8 | 0.00 | 0.89 | 0.89 | 92 | 1006.6 |
| 20260507031515 | 14 | 64 | 1.6 | 4.8 | 0.00 | 0.89 | 0.89 | 92 | 1006.4 |
| 20260507031002 | 14 | 320 | 0.0 | 8.0 | 0.00 | 0.89 | 0.89 | 92 | 1006.3 |
| 20260507030502 | 14 | 51 | 1.6 | 12.9 | 0.00 | 0.89 | 0.89 | 92 | 1006.1 |
| 20260507030003 | 14 | 323 | 1.6 | 12.9 | 0.00 | 0.89 | 0.89 | 92 | 1006.1 |
| 20260507025502 | 15 | 9 | 1.6 | 3.2 | 0.00 | 0.89 | 0.89 | 92 | 1006.0 |
| 20260507025003 | 15 | 321 | 0.0 | 3.2 | 0.00 | 0.89 | 0.89 | 92 | 1006.0 |
| 20260507024504 | 15 | 127 | 0.0 | 3.2 | 0.00 | 0.89 | 0.89 | 92 | 1005.8 |
| 20260507024004 | 15 | 277 | 0.0 | 9.7 | 0.00 | 0.89 | 0.89 | 92 | 1005.7 |
| 20260507023508 | 15 | 190 | 1.6 | 9.7 | 0.00 | 0.89 | 0.89 | 92 | 1005.6 |
| 20260507023008 | 15 | 227 | 0.0 | 4.8 | 0.00 | 0.89 | 0.89 | 92 | 1005.6 |
| 20260507022505 | 15 | 214 | 0.0 | 8.0 | 0.00 | 0.89 | 0.89 | 92 | 1005.7 |
| 20260507022006 | 15 | 192 | 1.6 | 8.0 | 0.00 | 0.89 | 0.89 | 92 | 1005.7 |
| 20260507021515 | 15 | 153 | 1.6 | 9.7 | 0.00 | 0.89 | 0.89 | 92 | 1005.7 |
| 20260507021007 | 15 | 149 | 0.0 | 9.7 | 0.00 | 0.89 | 0.89 | 92 | 1005.7 |
| 20260507020507 | 15 | 176 | 1.6 | 3.2 | 0.00 | 0.89 | 0.89 | 92 | 1005.9 |
| 20260507020004 | 15 | 182 | 0.0 | 3.2 | 0.00 | 0.89 | 0.89 | 92 | 1006.0 |
| 20260507015506 | 15 | 188 | 1.6 | 4.8 | 0.00 | 0.89 | 0.89 | 92 | 1006.0 |
| 20260507015002 | 15 | 224 | 1.6 | 4.8 | 0.00 | 0.89 | 0.89 | 92 | 1006.0 |
| 20260507014506 | 15 | 166 | 0.0 | 6.4 | 0.00 | 0.89 | 0.89 | 92 | 1006.1 |
| 20260507014004 | 15 | 122 | 0.0 | 6.4 | 0.00 | 0.89 | 0.89 | 92 | 1006.1 |
| 20260507013504 | 15 | 183 | 1.6 | 6.4 | 0.00 | 0.89 | 0.89 | 92 | 1006.2 |
| 20260507013008 | 15 | 130 | 1.6 | 6.4 | 0.00 | 0.89 | 0.89 | 92 | 1006.1 |
| 20260507012504 | 15 | 115 | 3.2 | 6.4 | 0.00 | 0.89 | 0.89 | 92 | 1006.0 |
| 20260507012002 | 15 | 162 | 1.6 | 4.8 | 0.00 | 0.89 | 0.89 | 92 | 1006.2 |
| 20260507011531 | 15 | 257 | 0.0 | 3.2 | 0.00 | 0.89 | 0.89 | 92 | 1006.2 |
| 20260507011005 | 15 | 158 | 0.0 | 3.2 | 0.00 | 0.89 | 0.89 | 92 | 1006.2 |
| 20260507010506 | 15 | 147 | 0.0 | 12.9 | 0.00 | 0.89 | 0.89 | 92 | 1006.2 |
| 20260507010019 | 15 | 179 | 1.6 | 12.9 | 0.00 | 0.89 | 0.89 | 92 | 1006.2 |
| 20260507005507 | 15 | 150 | 1.6 | 11.3 | 0.00 | 0.89 | 0.89 | 92 | 1006.2 |
| 20260507005006 | 15 | 146 | 1.6 | 11.3 | 0.03 | 0.89 | 0.89 | 92 | 1006.0 |
| 20260507004503 | 15 | 132 | 3.2 | 9.7 | 0.03 | 0.89 | 0.89 | 92 | 1006.2 |
| 20260507004005 | 15 | 202 | 3.2 | 8.0 | 0.03 | 0.89 | 0.89 | 92 | 1006.2 |
| 20260507003504 | 15 | 113 | 1.6 | 6.4 | 0.03 | 0.89 | 0.89 | 92 | 1006.1 |
| 20260507003015 | 15 | 190 | 0.0 | 6.4 | 0.05 | 0.89 | 0.89 | 92 | 1006.1 |
| 20260507002503 | 15 | 203 | 1.6 | 6.4 | 0.05 | 0.89 | 0.89 | 92 | 1006.1 |
| 20260507002003 | 15 | 148 | 1.6 | 4.8 | 0.08 | 0.89 | 0.89 | 92 | 1005.9 |
| 20260507001512 | 15 | 166 | 0.0 | 4.8 | 0.08 | 0.89 | 0.89 | 92 | 1006.0 |
| 20260507001004 | 15 | 180 | 0.0 | 14.5 | 0.08 | 0.89 | 0.89 | 92 | 1005.8 |
| 20260507000507 | 15 | 178 | 0.0 | 14.5 | 0.08 | 0.89 | 0.89 | 92 | 1005.8 |
| 20260507000016 | 15 | 149 | 3.2 | 14.5 | 0.08 | 0.89 | 0.89 | 92 | 1005.7 |
| 20260506235507 | 15 | 138 | 0.0 | 6.4 | 0.08 | 0.89 | 0.89 | 92 | 1005.8 |
| 20260506235007 | 15 | 192 | 0.0 | 11.3 | 0.05 | 0.86 | 0.86 | 92 | 1005.8 |
| 20260506234520 | 15 | 196 | 1.6 | 11.3 | 0.08 | 0.86 | 0.86 | 92 | 1005.8 |
| 20260506234011 | 15 | 146 | 0.0 | 8.0 | 0.08 | 0.86 | 0.86 | 92 | 1005.4 |
| 20260506233508 | 15 | 88 | 1.6 | 8.0 | 0.08 | 0.86 | 0.86 | 92 | 1005.5 |
| 20260506233004 | 15 | 178 | 3.2 | 12.9 | 0.05 | 0.84 | 0.84 | 92 | 1005.6 |
| 20260506232505 | 15 | 100 | 1.6 | 12.9 | 0.05 | 0.84 | 0.84 | 92 | 1005.6 |
| 20260506232003 | 15 | 165 | 1.6 | 6.4 | 0.03 | 0.81 | 0.81 | 92 | 1005.8 |
| 20260506231509 | 15 | 212 | 0.0 | 6.4 | 0.03 | 0.81 | 0.81 | 92 | 1005.9 |
| 20260506231005 | 15 | 187 | 0.0 | 6.4 | 0.03 | 0.81 | 0.81 | 92 | 1005.8 |
| 20260506230505 | 15 | 128 | 0.0 | 12.9 | 0.03 | 0.81 | 0.81 | 92 | 1005.8 |
| 20260506230016 | 15 | 159 | 1.6 | 12.9 | 0.05 | 0.81 | 0.81 | 91 | 1005.8 |
| 20260506225503 | 15 | 245 | 1.6 | 12.9 | 0.05 | 0.81 | 0.81 | 91 | 1005.8 |
| 20260506225004 | 15 | 238 | 0.0 | 14.5 | 0.08 | 0.81 | 0.81 | 91 | 1005.8 |
| 20260506224518 | 15 | 144 | 1.6 | 14.5 | 0.08 | 0.79 | 0.79 | 92 | 1005.9 |
| 20260506224007 | 15 | 130 | 4.8 | 14.5 | 0.10 | 0.79 | 0.79 | 91 | 1005.9 |
| 20260506223508 | 15 | 199 | 3.2 | 8.0 | 0.10 | 0.79 | 0.79 | 91 | 1006.0 |
| 20260506223022 | 15 | 136 | 1.6 | 9.7 | 0.10 | 0.79 | 0.79 | 91 | 1006.0 |
| 20260506222511 | 15 | 163 | 4.8 | 9.7 | 0.13 | 0.79 | 0.79 | 91 | 1006.1 |
| 20260506222011 | 15 | 204 | 1.6 | 8.0 | 0.15 | 0.79 | 0.79 | 91 | 1006.1 |